[[{"header":{"parameterUnit":"m.s-1","parameterCategory":1,"la1":30.2991,"la2":30.254,"lo1":-89.0895,"lo2":-89.0444,"dy":0.0017,"dx":0.0017,"nx":28,"ny":28,"refTime":"2024-04-12T21:00:00:Z","depth":0,"parameterNumber":2,"parameterNumberName":"U-component_of_WINDS"},"data":[0,0,0,0,0,0,0,0,0,0,0,0,0,0,0,0,0,0,0,0,0,0,0,0,0,0,0,0,0,0,0,0,0,0,0,0,0,0,0,0,0,0,0,0,0,0,0,0,0,0,0,0,0,0,0,0,0,0,-1.3362,-1.3362,0,-1.3301,-1.33,-1.3299,-1.322,-1.3219,-1.3218,-1.3217,-1.3155,-1.3154,-1.3154,0,0,0,0,0,0,0,0,0,0,0,0,0,-1.3416,-1.3415,-1.3363,-1.3362,-1.3361,-1.3301,-1.33,-1.3299,-1.3221,-1.3219,-1.3217,-1.3216,-1.3155,-1.3154,-1.3154,0,0,0,0,0,0,0,0,0,0,0,0,0,-1.3377,-1.3415,-1.3363,-1.3315,-1.331,-1.3301,-1.33,-1.3299,-1.3221,-1.3219,-1.3217,-1.3215,-1.3155,-1.3154,-1.3154,-1.3188,0,0,-1.3152,-1.3151,0,0,0,0,0,0,0,0,-1.338,-1.3375,-1.3322,-1.3318,-1.3312,-1.3266,-1.3296,-1.3262,-1.3221,-1.3255,-1.3217,-1.3214,-1.3194,-1.319,-1.3182,-1.3185,-1.3182,-1.3152,-1.3151,-1.3151,-1.3151,0,0,0,0,0,0,0,-1.3382,-1.3378,-1.3338,-1.3322,-1.3316,-1.3297,-1.329,-1.3289,-1.3236,-1.3252,-1.3246,-1.3239,-1.319,-1.3183,-1.318,-1.3182,-1.3152,-1.3151,-1.3151,-1.315,-1.3213,-1.3215,0,0,0,0,0,0,-1.3392,-1.338,-1.334,-1.3336,-1.3342,-1.3298,-1.3289,-1.3283,-1.3235,-1.3226,-1.3241,-1.3236,-1.3185,-1.3181,-1.3178,-1.3217,-1.3151,-1.315,-1.315,-1.3211,-1.3213,-1.3216,0,0,0,0,0,0,-1.3393,-1.3389,-1.3343,-1.3357,-1.3349,-1.3299,-1.3293,-1.3283,-1.3275,-1.3227,-1.3218,-1.3243,-1.3184,-1.3179,-1.3187,-1.3213,-1.315,-1.3149,-1.3208,-1.3212,-1.3215,-1.3294,0,0,0,0,0,0,-1.3395,-1.339,-1.3401,-1.3358,-1.3349,-1.3352,-1.3294,-1.3283,-1.3274,-1.3267,-1.3227,-1.3218,-1.3182,-1.3188,-1.3186,-1.3211,-1.3149,-1.3206,-1.321,-1.3214,-1.3288,-1.3299,-1.3308,0,0,0,0,0,-1.3397,-1.3426,-1.3402,-1.3398,-1.3362,-1.3353,-1.3348,-1.3305,-1.3277,-1.3289,-1.3258,-1.322,-1.3211,-1.319,-1.3187,-1.3212,-1.3204,-1.3209,-1.3213,-1.3284,-1.3297,-1.3308,0,0,0,0,0,0,-1.3474,-1.3419,-1.3392,-1.3407,-1.3386,-1.334,-1.3353,-1.332,-1.3306,-1.33,-1.3247,-1.3239,-1.3254,-1.3233,-1.3211,-1.3244,-1.3202,-1.3206,-1.3257,-1.3269,-1.3278,-1.3283,-1.3148,0,0,0,0,0,-1.3492,-1.3489,-1.3442,-1.3459,-1.345,-1.3404,-1.3398,-1.3367,-1.3343,-1.3333,-1.3303,-1.3282,-1.3274,-1.327,-1.326,-1.3285,-1.3277,-1.3302,-1.3312,-1.332,-1.3324,-1.3339,-1.335,-1.3231,-1.3231,-1.3231,0,0,-1.353,-1.35,-1.3501,-1.3474,-1.3453,-1.3453,-1.3397,-1.3397,-1.3397,-1.3333,-1.3339,-1.3317,-1.329,-1.3307,-1.3313,-1.3291,-1.3356,-1.3326,-1.3333,-1.3333,-1.3345,-1.3356,-1.3366,-1.3234,-1.3234,-1.3233,0,0,-1.36,-1.3576,-1.3589,-1.3571,-1.354,-1.351,-1.3514,-1.3474,-1.3457,-1.3462,-1.3416,-1.3415,-1.3402,-1.3385,-1.3375,-1.3443,-1.3407,-1.3441,-1.3492,-1.3507,-1.3517,-1.3525,-1.3551,-1.356,-1.3445,-1.3446,-1.3446,0,-1.3651,-1.3647,-1.36,-1.3605,-1.3595,-1.3539,-1.3553,-1.3537,-1.3506,-1.3502,-1.3477,-1.3462,-1.344,-1.3454,-1.347,-1.3463,-1.3467,-1.3445,-1.3519,-1.3527,-1.3533,-1.3558,-1.3567,-1.345,-1.345,-1.3449,-1.3449,0,-1.3713,-1.3711,-1.3726,-1.3697,-1.369,-1.3699,-1.3656,-1.3654,-1.3624,-1.3597,-1.3605,-1.3577,-1.3561,-1.3562,-1.3533,-1.3573,-1.3561,-1.3528,-1.3485,-1.355,-1.3572,-1.358,-1.3456,-1.3455,-1.3453,-1.3452,0,0,-1.3826,-1.3774,-1.3781,-1.3769,-1.3733,-1.3731,-1.374,-1.3725,-1.3725,-1.3706,-1.3713,-1.3706,-1.3676,-1.3665,-1.3634,-1.3647,-1.3705,-1.3613,-1.3612,-1.3632,-1.375,-1.3775,-1.3787,-1.3682,-1.3683,-1.3684,-1.3753,0,-1.389,-1.39,-1.386,-1.3881,-1.388,-1.3828,-1.3836,-1.3816,-1.3792,-1.3789,-1.3762,-1.3759,-1.3719,-1.3713,-1.3723,-1.3696,-1.3728,-1.369,-1.3689,-1.3689,-1.3698,-1.3798,-1.3823,-1.3889,-1.3761,-1.3762,-1.3763,0,-1.3964,-1.3951,-1.3972,-1.3938,-1.3936,-1.3943,-1.3928,-1.3926,-1.3903,-1.3885,-1.3874,-1.3839,-1.3846,-1.3805,-1.3816,-1.3791,-1.3789,-1.3776,-1.3778,-1.3776,-1.3731,-1.38,-1.3909,-1.392,-1.3776,-1.3775,-1.3774,0,-1.4047,-1.4034,-1.4046,-1.4037,-1.3997,-1.4004,-1.3988,-1.3963,-1.3958,-1.3945,-1.3942,-1.3931,-1.3925,-1.3918,-1.3881,-1.3854,-1.3897,-1.3852,-1.3884,-1.3885,-1.3895,-1.3895,-1.4007,-1.3893,-1.3892,-1.3892,-1.3892,0,-1.4122,-1.4138,-1.4083,-1.409,-1.4107,-1.4062,-1.408,-1.4059,-1.4038,-1.4042,-1.3997,-1.4001,-1.3952,-1.3952,-1.3924,-1.3939,-1.3936,-1.3923,-1.3915,-1.3927,-1.3929,-1.3925,-1.392,-1.3895,-1.3894,-1.3894,-1.3893,0,-1.4217,-1.418,-1.419,-1.4153,-1.4144,-1.4158,-1.4127,-1.4133,-1.4107,-1.4112,-1.4111,-1.4071,-1.4069,-1.4032,-1.4021,-1.4002,-1.4029,-1.4013,-1.4037,-1.4032,-1.4066,-1.4064,-1.418,-1.4193,-1.407,-1.4071,-1.4072,0,-1.4267,-1.4278,-1.4243,-1.4242,-1.4228,-1.4228,-1.4223,-1.418,-1.4177,-1.4154,-1.4164,-1.4158,-1.4151,-1.4151,-1.4121,-1.4114,-1.4097,-1.4139,-1.4096,-1.4109,-1.41,-1.41,-1.4102,-1.4148,-1.4149,-1.415,-1.4151,0,-1.4362,-1.4344,-1.4338,-1.4327,-1.4323,-1.4312,-1.4299,-1.4301,-1.4254,-1.4254,-1.4251,-1.4246,-1.4237,-1.4233,-1.4221,-1.4205,-1.4172,-1.4165,-1.4173,-1.4185,-1.42,-1.4194,-1.4063,-1.4163,-1.4162,-1.4161,-1.416,-1.416,-1.4437,-1.4445,-1.4422,-1.4418,-1.4404,-1.4393,-1.4398,-1.4374,-1.4371,-1.436,-1.4335,-1.4337,-1.4318,-1.4298,-1.4287,-1.4289,-1.4268,-1.4278,-1.4281,-1.4284,-1.4291,-1.4199,-1.4286,-1.4286,-1.4285,-1.4285,-1.4285,0,-1.453,-1.4513,-1.451,-1.4493,-1.4491,-1.446,-1.4444,-1.4445,-1.4447,-1.4431,-1.4426,-1.4425,-1.4422,-1.4393,-1.4387,-1.4395,-1.4379,-1.4395,-1.4394,-1.4391,-1.4309,-1.4304,-1.4407,-1.4407,-1.4407,-1.4407,-1.4407,-1.4407,-1.4578,-1.4591,-1.4572,-1.4579,-1.4562,-1.4564,-1.4558,-1.4549,-1.4536,-1.4537,-1.4534,-1.4516,-1.4496,-1.4488,-1.4484,-1.4476,-1.4477,-1.4498,-1.4485,-1.4409,-1.4397,-1.4386,-1.4381,-1.4498,-1.4498,-1.4567,-1.4567,-1.4568]},{"header":{"parameterUnit":"m.s-1","parameterCategory":1,"la1":30.2991,"la2":30.254,"lo1":-89.0895,"lo2":-89.0444,"dy":0.0017,"dx":0.0017,"nx":28,"ny":28,"refTime":"2024-04-12T21:00:00:Z","depth":0,"parameterNumber":3,"parameterNumberName":"V-component_of_WINDS"},"data":[0,0,0,0,0,0,0,0,0,0,0,0,0,0,0,0,0,0,0,0,0,0,0,0,0,0,0,0,0,0,0,0,0,0,0,0,0,0,0,0,0,0,0,0,0,0,0,0,0,0,0,0,0,0,0,0,0,0,2.5223,2.5223,0,2.522,2.522,2.522,2.5204,2.5203,2.5203,2.5202,2.52,2.52,2.52,0,0,0,0,0,0,0,0,0,0,0,0,0,2.5214,2.5214,2.5223,2.5223,2.5223,2.522,2.522,2.522,2.5204,2.5203,2.5203,2.5202,2.5199,2.52,2.52,0,0,0,0,0,0,0,0,0,0,0,0,0,2.5215,2.5214,2.5223,2.5214,2.5213,2.522,2.522,2.522,2.5204,2.5203,2.5203,2.5202,2.5199,2.52,2.52,2.5215,0,0,2.5201,2.5202,0,0,0,0,0,0,0,0,2.5215,2.5216,2.5215,2.5215,2.5214,2.5211,2.5216,2.5218,2.5204,2.5207,2.5202,2.5202,2.5204,2.5204,2.5205,2.5215,2.5214,2.5202,2.5202,2.5202,2.5202,0,0,0,0,0,0,0,2.5215,2.5216,2.5222,2.5215,2.5214,2.5211,2.521,2.5216,2.5209,2.5207,2.5206,2.5206,2.5203,2.5204,2.5205,2.5214,2.5202,2.5202,2.5202,2.5202,2.5236,2.5236,0,0,0,0,0,0,2.5216,2.5216,2.5222,2.5221,2.5213,2.5211,2.5211,2.5213,2.5209,2.5208,2.5206,2.5205,2.5204,2.5204,2.5204,2.522,2.5202,2.5202,2.5203,2.5235,2.5236,2.5237,0,0,0,0,0,0,2.5216,2.5217,2.5222,2.5218,2.5219,2.5212,2.5215,2.5213,2.5214,2.5208,2.5207,2.5208,2.5203,2.5204,2.5212,2.522,2.5203,2.5203,2.5234,2.5235,2.5236,2.5253,0,0,0,0,0,0,2.5216,2.5217,2.5222,2.5218,2.5219,2.5229,2.5215,2.5213,2.5215,2.5213,2.521,2.5209,2.5203,2.5212,2.5213,2.522,2.5203,2.5234,2.5235,2.5236,2.5252,2.5255,2.5257,0,0,0,0,0,2.5216,2.5227,2.5222,2.5223,2.5225,2.523,2.523,2.5223,2.5216,2.5221,2.5217,2.5209,2.522,2.5213,2.5214,2.5222,2.5233,2.5235,2.5236,2.5251,2.5254,2.5257,0,0,0,0,0,0,2.5231,2.5226,2.5221,2.5232,2.5231,2.5227,2.5233,2.5227,2.5228,2.5227,2.5218,2.5218,2.5227,2.5226,2.5218,2.5236,2.5225,2.5227,2.5236,2.5239,2.5242,2.5241,2.5204,0,0,0,0,0,2.5236,2.5241,2.5236,2.5246,2.5246,2.524,2.5242,2.5236,2.5236,2.5235,2.5232,2.5232,2.5235,2.5237,2.524,2.5252,2.5251,2.5258,2.5261,2.5263,2.5264,2.527,2.5273,2.5241,2.5241,2.5241,0,0,2.5246,2.5244,2.5247,2.5249,2.5248,2.5252,2.524,2.5245,2.5248,2.5236,2.5243,2.5242,2.5241,2.5251,2.5255,2.525,2.5273,2.5265,2.5267,2.5266,2.5272,2.5275,2.5278,2.5242,2.5242,2.5242,0,0,2.5266,2.5265,2.5272,2.5272,2.5271,2.5267,2.5269,2.5266,2.5264,2.5272,2.5263,2.5267,2.5273,2.5272,2.5273,2.5294,2.5286,2.5295,2.5308,2.5314,2.5316,2.5318,2.5325,2.5327,2.5297,2.5297,2.5297,0,2.5278,2.5284,2.5277,2.5283,2.5284,2.5274,2.5282,2.5282,2.5282,2.5283,2.5277,2.5284,2.5283,2.5293,2.5298,2.5299,2.5301,2.5294,2.5316,2.5318,2.532,2.5326,2.5329,2.5298,2.5297,2.5297,2.5297,0,2.5298,2.5303,2.531,2.531,2.5312,2.5319,2.5313,2.5316,2.5311,2.5308,2.5316,2.5314,2.5316,2.5319,2.5314,2.5328,2.5325,2.5318,2.5307,2.5324,2.533,2.5332,2.5299,2.5299,2.5298,2.5298,0,0,2.5326,2.5324,2.5326,2.5326,2.5325,2.5328,2.5335,2.5337,2.5339,2.534,2.5345,2.5351,2.5345,2.5345,2.5341,2.5346,2.5362,2.5339,2.5339,2.5342,2.5377,2.5381,2.5383,2.5358,2.5358,2.5359,2.5376,0,2.5344,2.5355,2.535,2.5361,2.5365,2.5356,2.5362,2.5362,2.536,2.5363,2.5361,2.5364,2.5356,2.5357,2.5362,2.5359,2.5369,2.5358,2.5362,2.5362,2.536,2.5387,2.5391,2.5407,2.5379,2.5379,2.5379,0,2.5366,2.5368,2.5379,2.5378,2.5379,2.5384,2.5386,2.539,2.539,2.5388,2.5389,2.5383,2.539,2.538,2.5389,2.5382,2.5383,2.5382,2.5383,2.5381,2.537,2.5385,2.5413,2.5415,2.5383,2.5382,2.5382,0,2.5383,2.5389,2.5397,2.5397,2.5396,2.54,2.5399,2.5399,2.54,2.5402,2.5403,2.5406,2.5407,2.5409,2.5404,2.5398,2.5414,2.5404,2.5411,2.5412,2.5414,2.5413,2.5441,2.5417,2.5417,2.5417,2.5417,0,2.5403,2.541,2.5405,2.5409,2.5417,2.5412,2.542,2.5419,2.5419,2.5423,2.5416,2.542,2.5414,2.5418,2.5414,2.5422,2.5423,2.5421,2.5419,2.542,2.5421,2.542,2.5418,2.5418,2.5418,2.5418,2.5417,0,2.5423,2.542,2.5427,2.5426,2.5426,2.5431,2.543,2.5434,2.5432,2.5437,2.5438,2.5435,2.5439,2.5435,2.5439,2.5436,2.5446,2.5443,2.5445,2.5444,2.5452,2.5451,2.5479,2.5482,2.5458,2.5458,2.5458,0,2.5435,2.544,2.5439,2.5442,2.5442,2.5446,2.5448,2.5443,2.5445,2.5446,2.545,2.5454,2.5456,2.5463,2.5461,2.5464,2.546,2.547,2.5461,2.5462,2.5459,2.5458,2.5459,2.5472,2.5472,2.5472,2.5472,0,2.5456,2.5454,2.5457,2.546,2.5463,2.5464,2.5466,2.5468,2.5463,2.5466,2.547,2.5472,2.5476,2.548,2.5482,2.5482,2.5476,2.5476,2.5477,2.5478,2.5478,2.5477,2.5449,2.5475,2.5474,2.5474,2.5474,2.5474,2.5471,2.5476,2.5476,2.548,2.548,2.5482,2.5486,2.5484,2.5488,2.5491,2.5488,2.5493,2.5493,2.5496,2.5496,2.55,2.5496,2.5498,2.5499,2.5499,2.55,2.5479,2.55,2.55,2.55,2.55,2.55,0,2.5491,2.5491,2.5495,2.5497,2.55,2.5496,2.5497,2.55,2.5504,2.5505,2.5508,2.5512,2.5516,2.5514,2.5517,2.5521,2.5518,2.5521,2.552,2.552,2.5504,2.5502,2.5523,2.5523,2.5523,2.5523,2.5523,2.5523,2.5502,2.5509,2.5507,2.5515,2.5515,2.5519,2.5521,2.5522,2.5523,2.5528,2.5531,2.5531,2.5531,2.5534,2.5537,2.5536,2.5537,2.5541,2.554,2.5524,2.5522,2.5519,2.5517,2.5542,2.5542,2.5555,2.5555,2.5556]}]]